| time (UTC) | temp F | wind direction | speed MPH | gust MPH | rain 1hr in | rain 24hr in | rain mn in | humidity % | barometer mb |
| 20260902151614 | 68 | 66 | 0.0 | 0.0 | 0.00 | 0.00 | 0.00 | 53 | |
| 20260902150612 | 69 | 66 | 0.0 | 6.0 | 0.00 | 0.00 | 0.00 | 46 | |
| 20260902145613 | 71 | 75 | 0.0 | 0.0 | 0.00 | 0.00 | 0.00 | 51 | |
| 20260902144610 | 71 | 75 | 0.0 | 2.0 | 0.00 | 0.00 | 0.00 | 100 | |
| 20260902143610 | 72 | 75 | 0.0 | 0.0 | 0.00 | 0.00 | 0.00 | 49 | |
| 20260902142609 | 71 | 75 | 0.0 | 0.0 | 0.00 | 0.00 | 0.00 | 50 | |
| 20260902141609 | 72 | 75 | 0.0 | 6.0 | 0.00 | 0.00 | 0.00 | 49 | |
| 20260902140608 | 74 | 180 | 0.0 | 0.0 | 0.00 | 0.00 | 0.00 | 45 | |
| 20260902135608 | 74 | 180 | 0.0 | 0.0 | 0.00 | 0.00 | 0.00 | 45 | |
| 20260902134607 | 72 | 180 | 0.0 | 0.0 | 0.00 | 0.00 | 0.00 | 48 | |
| 20260902133606 | 70 | 180 | 0.0 | 0.0 | 0.00 | 0.00 | 0.00 | 49 | |
| 20260902132101 | 73 | 54 | 0.0 | 0.0 | 0.00 | 0.00 | 0.00 | 48 | |
| 20260902131058 | 73 | 54 | 0.0 | 0.0 | 0.00 | 0.00 | 0.00 | 47 | |
| 20260902130221 | 73 | 54 | 0.0 | 0.0 | 0.00 | 0.00 | 0.00 | 47 | |
| 20260902130059 | 73 | 54 | 0.0 | 0.0 | 0.00 | 0.00 | 0.00 | 47 | |
| 20260902125446 | 72 | 54 | 0.0 | 0.0 | 0.00 | 0.00 | 0.00 | 50 | |
| 20260902125055 | 72 | 54 | 0.0 | 0.0 | 0.00 | 0.00 | 0.00 | 50 | |
| 20260902124057 | 68 | 54 | 0.0 | 0.0 | 0.00 | 0.00 | 0.00 | 53 | |
| 20260902123054 | 68 | 54 | 0.0 | 0.0 | 0.00 | 0.00 | 0.00 | 55 | |
| 20260902122053 | 68 | 54 | 0.0 | 0.0 | 0.00 | 0.00 | 0.00 | 54 | |
| 20260902121053 | 66 | 54 | 0.0 | 0.0 | 0.00 | 0.00 | 0.00 | 60 | |
| 20260902120052 | 64 | 54 | 0.0 | 0.0 | 0.00 | 0.00 | 0.00 | 60 | |
| 20260902115052 | 66 | 54 | 0.0 | 0.0 | 0.00 | 0.00 | 0.00 | 57 | |
| 20260902114051 | 68 | 54 | 0.0 | 0.0 | 0.00 | 0.00 | 0.00 | 100 | |
| 20260902113050 | 67 | 54 | 0.0 | 0.0 | 0.00 | 0.00 | 0.00 | 55 | |
| 20260902112050 | 67 | 54 | 0.0 | 0.0 | 0.00 | 0.00 | 0.00 | 55 | |
| 20260902111049 | 66 | 54 | 0.0 | 0.0 | 0.00 | 0.00 | 0.00 | 55 | |
| 20260902110049 | 66 | 54 | 0.0 | 0.0 | 0.00 | 0.00 | 0.00 | 56 | |
| 20260902105048 | 65 | 54 | 0.0 | 0.0 | 0.00 | 0.00 | 0.00 | 58 | |
| 20260902104047 | 64 | 54 | 0.0 | 0.0 | 0.00 | 0.00 | 0.00 | 60 | |
| 20260902103047 | 64 | 180 | 0.0 | 0.0 | 0.00 | 0.00 | 0.00 | 59 | |
| 20260902102255 | 63 | 180 | 0.0 | 0.0 | 0.00 | 0.00 | 0.00 | 61 | |
| 20260902102046 | 63 | 180 | 0.0 | 0.0 | 0.00 | 0.00 | 0.00 | 61 | |
| 20260902101046 | 62 | 180 | 0.0 | 0.0 | 0.00 | 0.00 | 0.00 | 63 | |
| 20260902100045 | 62 | 180 | 0.0 | 0.0 | 0.00 | 0.00 | 0.00 | 62 | |
| 20260902095045 | 62 | 180 | 0.0 | 0.0 | 0.00 | 0.00 | 0.00 | 61 | |
| 20260902094044 | 65 | 180 | 0.0 | 0.0 | 0.00 | 0.00 | 0.00 | 56 | |
| 20260902093043 | 67 | 180 | 0.0 | 0.0 | 0.00 | 0.00 | 0.00 | 53 | |
| 20260902092043 | 68 | 180 | 0.0 | 0.0 | 0.00 | 0.00 | 0.00 | 52 | |
| 20260902091042 | 68 | 180 | 0.0 | 0.0 | 0.00 | 0.00 | 0.00 | 52 | |
| 20260902090042 | 69 | 180 | 0.0 | 0.0 | 0.00 | 0.00 | 0.00 | 47 | |
| 20260902085041 | 69 | 180 | 0.0 | 0.0 | 0.00 | 0.00 | 0.00 | 47 | |
| 20260902084040 | 70 | 180 | 0.0 | 0.0 | 0.00 | 0.00 | 0.00 | 46 | |
| 20260902083040 | 71 | 180 | 0.0 | 0.0 | 0.00 | 0.00 | 0.00 | 44 | |
| 20260902082039 | 70 | 180 | 0.0 | 0.0 | 0.00 | 0.00 | 0.00 | 48 | |
| 20260902081039 | 69 | 180 | 0.0 | 0.0 | 0.00 | 0.00 | 0.00 | 48 | |
| 20260902080138 | 69 | 180 | 0.0 | 0.0 | 0.00 | 0.00 | 0.00 | 49 | |
| 20260902080038 | 69 | 180 | 0.0 | 0.0 | 0.00 | 0.00 | 0.00 | 49 | |
| 20260902075037 | 68 | 180 | 0.0 | 0.0 | 0.00 | 0.00 | 0.00 | 50 | |
| 20260902074037 | 67 | 180 | 0.0 | 0.0 | 0.00 | 0.00 | 0.00 | 52 | |
| 20260902073036 | 66 | 180 | 0.0 | 0.0 | 0.00 | 0.00 | 0.00 | 54 | |
| 20260902072036 | 61 | 180 | 0.0 | 0.0 | 0.00 | 0.00 | 0.00 | 62 | |
| 20260902071035 | 57 | 180 | 0.0 | 0.0 | 0.00 | 0.00 | 0.00 | 69 | |
| 20260902070035 | 57 | 180 | 0.0 | 0.0 | 0.00 | 0.00 | 0.00 | 70 | |
| 20260902065034 | 57 | 180 | 0.0 | 0.0 | 0.00 | 0.00 | 0.00 | 68 | |
| 20260902064033 | 58 | 180 | 0.0 | 0.0 | 0.00 | 0.00 | 0.00 | 66 | |
| 20260902063033 | 59 | 180 | 0.0 | 0.0 | 0.00 | 0.00 | 0.00 | 65 | |
| 20260902062032 | 61 | 180 | 0.0 | 0.0 | 0.00 | 0.00 | 0.00 | 61 | |
| 20260902061032 | 63 | 180 | 0.0 | 0.0 | 0.00 | 0.00 | 0.00 | 57 | |
| 20260902060032 | 62 | 180 | 0.0 | 0.0 | 0.00 | 0.00 | 0.00 | 59 | |
| 20260902055031 | 61 | 180 | 0.0 | 0.0 | 0.00 | 0.00 | 0.00 | 61 | |
| 20260902054030 | 60 | 180 | 0.0 | 0.0 | 0.00 | 0.00 | 0.00 | 65 | |
| 20260902053035 | 57 | 180 | 0.0 | 0.0 | 0.00 | 0.00 | 0.00 | 72 | |
| 20260902052029 | 54 | 180 | 0.0 | 0.0 | 0.00 | 0.00 | 0.00 | 81 | |
| 20260902051028 | 50 | 180 | 0.0 | 0.0 | 0.00 | 0.00 | 0.00 | 91 | |
| 20260902050028 | 47 | 180 | 0.0 | 0.0 | 0.00 | 0.00 | 0.00 | 98 | |
| 20260901173055 | 52 | 57 | 0.0 | 0.0 | 0.00 | 0.00 | 0.00 | 84 | |
| 20260901172054 | 53 | 57 | 0.0 | 0.0 | 0.00 | 0.00 | 0.00 | 84 | |
| 20260901171054 | 54 | 57 | 0.0 | 0.0 | 0.00 | 0.00 | 0.00 | 80 | |
| 20260901170053 | 54 | 57 | 0.0 | 0.0 | 0.00 | 0.00 | 0.00 | 77 | |
| 20260901165054 | 54 | 57 | 0.0 | 0.0 | 0.00 | 0.00 | 0.00 | 77 | |
| 20260901164052 | 54 | 57 | 0.0 | 0.0 | 0.00 | 0.00 | 0.00 | 78 | |
| 20260901163052 | 54 | 57 | 0.0 | 0.0 | 0.00 | 0.00 | 0.00 | 78 | |
| 20260901162122 | 54 | 57 | 0.0 | 0.0 | 0.00 | 0.00 | 0.00 | 78 | |
| 20260901162051 | 54 | 57 | 0.0 | 0.0 | 0.00 | 0.00 | 0.00 | 78 | |
| 20260901161050 | 55 | 57 | 0.0 | 0.0 | 0.00 | 0.00 | 0.00 | 100 | |
| 20260901160052 | 56 | 57 | 0.0 | 0.0 | 0.00 | 0.00 | 0.00 | 72 | |
| 20260901155049 | 58 | 57 | 0.0 | 0.0 | 0.00 | 0.00 | 0.00 | 72 | |
| 20260901154049 | 59 | 57 | 0.0 | 0.0 | 0.00 | 0.00 | 0.00 | 71 | |
| 20260901153048 | 58 | 57 | 0.0 | 0.0 | 0.00 | 0.00 | 0.00 | 72 | |
| 20260901152047 | 57 | 57 | 0.0 | 0.0 | 0.00 | 0.00 | 0.00 | 73 |